Content
SEND FEEDBACK

Daily
Averages
Monthly
Summary
United States of America

EL PASO, TEXAS


Home > North America > United States > Texas
Elevation: 3918 feet     Latitude: 31 48N     Longitude: 106 24W

WEATHER
 
SELECT A DAY
Number of Records: 172,213;   Date Range: 1/1/95 - 9/18/14
 
SHARE

PRINT THIS DATA

[ ← Previous Day ]
WEATHER ALMANAC - JULY 7, 2013
[ Next Day → ]
[ °C ]   °F
We're sorry. There is no daily almanac available for El Paso, Texas on July 7, 2013.
WEATHER BY HOUR - JULY 7, 2013
[ °C ]   °F
Local TimeTemperatureDewpointHumidityBarometerVisibilityWind DirectionWind SpeedGust SpeedPrecipitationEventsConditions
1:51 AM84.9 °F55.9 °F37 %29.65 in10.0 miSouth (170°)8.1 mph0.02 inMostly Cloudy
2:51 AM84.9 °F54.0 °F34 %29.65 in10.0 miCalmMostly Cloudy
3:51 AM84.9 °F54.0 °F34 %29.66 in10.0 miNNW (340°)9.2 mphMostly Cloudy
4:51 AM81.0 °F54.0 °F39 %29.67 in10.0 miNorth (350°)15.0 mphMostly Cloudy
5:51 AM80.1 °F53.1 °F39 %29.69 in10.0 miNorth (350°)12.7 mphScattered Clouds
6:51 AM81.0 °F54.0 °F39 %29.71 in10.0 miNorth (350°)6.9 mphMostly Cloudy
7:51 AM82.9 °F54.0 °F37 %29.73 in10.0 miNNE (30°)8.1 mphMostly Cloudy
8:51 AM86.0 °F52.0 °F31 %29.74 in10.0 miEast (90°)5.8 mphMostly Cloudy
9:51 AM89.1 °F51.1 °F27 %29.73 in10.0 miSouth (170°)9.2 mphMostly Cloudy
10:51 AM90.0 °F51.1 °F26 %29.73 in10.0 miSSE (150°)4.6 mphScattered Clouds
11:51 AM93.9 °F51.1 °F23 %29.72 in10.0 miSouth (180°)3.5 mphScattered Clouds
12:51 PM95.0 °F50.0 °F22 %29.70 in10.0 miCalmScattered Clouds
1:51 PM97.0 °F50.0 °F20 %29.68 in10.0 miVariable4.6 mphScattered Clouds
2:51 PM99.0 °F48.9 °F18 %29.66 in10.0 miVariable6.9 mphScattered Clouds
3:51 PM100.9 °F48.9 °F17 %29.63 in10.0 miSSE (160°)11.5 mph17.3 mphScattered Clouds
4:51 PM98.1 °F50.0 °F20 %29.63 in10.0 miENE (70°)20.7 mph27.6 mphMostly Cloudy
5:51 PM98.1 °F50.0 °F20 %29.62 in10.0 miEast (90°)15.0 mphMostly Cloudy
6:51 PM97.0 °F48.0 °F19 %29.63 in10.0 miEast (100°)15.0 mphMostly Cloudy
7:51 PM95.0 °F45.0 °F18 %29.65 in10.0 miEast (100°)16.1 mph23.0 mphMostly Cloudy
8:51 PM93.0 °F44.1 °F18 %29.67 in10.0 miEast (100°)16.1 mph24.2 mphMostly Cloudy
9:51 PM90.0 °F45.0 °F21 %29.70 in10.0 miEast (100°)18.4 mphMostly Cloudy
10:51 PM88.0 °F46.9 °F24 %29.73 in10.0 miEast (100°)15.0 mphMostly Cloudy
11:51 PM86.0 °F50.0 °F29 %29.75 in10.0 miESE (120°)8.1 mph18.4 mphMostly Cloudy
Hourly data recorded from KELP, located miles away from El Paso, Texas







STORIES FROM OUR PARTNERS